period_start,C,m1,H,J0,J1,J2,J3,J4,J5,JA,JB,JC,JD,JJ,JK,JN,#
2017-12-11 00:01:21,0.00,2.05,0.00,19.68,23.20,26.34,14.46,43.33,1048.31,2042.02,2713.00,2605.00,2940.01,600.26,621.88,56.38,0000 0000 0000 0000 000000
2017-12-11 00:06:22,0.00,2.05,0.00,19.67,23.19,26.27,14.54,43.25,1048.18,2042.02,2712.99,2605.00,2940.00,600.45,621.98,56.43,0000 0000 0000 0000 000000
2017-12-11 00:11:24,0.01,2.05,0.00,19.65,23.17,26.28,14.48,43.19,1048.12,2042.09,2712.97,2604.97,2940.00,599.70,621.22,56.48,0000 0000 0000 0000 000000
2017-12-11 00:16:25,0.02,2.05,0.00,19.64,23.16,26.30,14.46,43.33,1047.98,2042.21,2712.46,2604.96,2939.99,599.87,621.34,56.53,0000 0000 0000 0000 000000
2017-12-11 00:21:26,0.05,2.05,0.00,19.62,23.14,26.24,14.42,43.19,1047.94,2042.43,2712.03,2604.75,2939.94,599.80,621.31,56.58,0000 0000 0000 0000 000000
2017-12-11 00:26:28,0.04,2.05,0.00,19.60,23.13,26.25,14.51,43.25,1047.90,2042.54,2711.94,2604.15,2939.36,600.12,621.57,56.63,0000 0000 0000 0000 000000
2017-12-11 00:31:29,0.03,2.06,0.00,19.59,23.12,26.27,14.42,43.22,1047.90,2042.72,2711.08,2604.00,2939.01,600.18,621.71,56.69,0000 0000 0000 0000 000000
2017-12-11 00:36:30,0.02,2.06,0.00,19.58,23.10,26.24,14.42,43.41,1047.89,2042.88,2711.00,2603.99,2938.99,600.00,621.62,56.74,0000 0000 0000 0000 000000
2017-12-11 00:41:31,0.04,2.06,0.00,19.57,23.09,26.23,14.50,43.41,1047.89,2042.95,2710.35,2603.85,2938.36,600.03,621.59,56.79,0000 0000 0000 0000 000000
2017-12-11 00:46:33,0.01,2.06,0.00,19.55,23.07,26.22,14.45,43.32,1047.91,2042.96,2710.01,2603.41,2938.02,599.95,621.57,56.84,0000 0000 0000 0000 000000
2017-12-11 00:51:34,0.02,2.06,0.00,19.54,23.06,26.15,14.45,43.19,1047.99,2042.98,2709.74,2603.09,2937.99,600.10,621.79,56.89,0000 0000 0000 0000 000000
2017-12-11 00:56:35,0.02,2.06,0.00,19.53,23.04,26.17,14.49,43.21,1047.94,2042.97,2709.00,2602.97,2937.29,600.00,621.77,56.94,0000 0000 0000 0000 000000
2017-12-11 01:01:36,0.01,2.06,0.00,19.52,23.02,26.14,14.47,43.21,1047.89,2042.98,2708.86,2602.88,2937.02,599.97,621.68,56.99,0000 0000 0000 0000 000000
2017-12-11 01:06:38,0.01,2.06,0.00,19.51,23.01,26.16,14.39,43.20,1047.89,2042.97,2708.29,2602.68,2937.00,600.07,621.79,57.04,0000 0000 0000 0000 000000
2017-12-11 01:11:39,0.02,2.07,0.00,19.49,22.99,26.14,14.50,43.22,1047.88,2042.98,2708.05,2602.29,2937.00,599.94,621.72,57.09,0000 0000 0000 0000 000000
2017-12-11 01:16:40,0.00,2.07,0.00,19.48,22.98,26.12,14.49,43.24,1047.88,2042.99,2708.01,2602.09,2936.98,600.07,621.70,57.14,0000 0000 0000 0000 000000
2017-12-11 01:21:42,-0.00,2.07,0.00,19.46,22.97,26.12,14.51,43.23,1047.87,2042.98,2708.00,2602.04,2936.94,599.99,621.83,57.19,0000 0000 0000 0000 000000
2017-12-11 01:26:43,0.02,2.07,0.00,19.44,22.94,26.07,14.51,43.26,1047.89,2042.99,2707.93,2602.01,2936.37,600.14,622.01,57.24,0000 0000 0000 0000 000000
2017-12-11 01:31:44,0.02,2.07,0.00,19.42,22.93,26.09,14.52,43.21,1047.87,2042.99,2707.13,2601.98,2936.01,599.96,621.82,57.29,0000 0000 0000 0000 000000
2017-12-11 01:36:45,0.00,2.07,0.00,19.42,22.92,26.07,14.50,43.21,1047.88,2042.99,2707.00,2601.95,2935.99,599.97,621.77,57.34,0000 0000 0000 0000 000000
2017-12-11 01:41:47,0.01,2.07,0.00,19.39,22.89,26.01,14.52,43.31,1047.87,2043.00,2706.98,2601.80,2935.98,600.11,622.07,57.39,0000 0000 0000 0000 000000
2017-12-11 01:46:48,0.01,2.07,0.00,19.38,22.88,26.03,14.47,43.17,1047.87,2043.01,2706.95,2601.73,2935.98,600.09,622.22,57.44,0000 0000 0000 0000 000000
2017-12-11 01:51:49,0.01,2.07,0.00,19.35,22.87,26.03,14.53,43.23,1047.87,2043.01,2706.77,2601.38,2935.95,600.03,622.09,57.49,0000 0000 0000 0000 000000
2017-12-11 01:56:50,0.02,2.07,0.00,19.33,22.84,26.00,14.45,43.21,1047.87,2043.02,2706.18,2601.19,2935.79,599.83,621.88,57.54,0000 0000 0000 0000 000000
2017-12-11 02:01:52,0.01,2.07,0.00,19.32,22.83,25.94,14.49,43.18,1047.82,2043.08,2706.06,2601.16,2935.74,600.26,622.28,57.59,0000 0000 0000 0000 000000
2017-12-11 02:06:53,0.01,2.07,0.00,19.29,22.82,25.98,14.47,43.27,1047.75,2043.20,2706.03,2601.20,2935.66,599.87,621.85,57.65,0000 0000 0000 0000 000000
2017-12-11 02:11:54,0.04,2.07,0.00,19.29,22.79,25.97,14.44,43.27,1047.78,2043.41,2706.00,2601.09,2935.21,599.89,621.99,57.70,0000 0000 0000 0000 000000
2017-12-11 02:16:56,0.01,2.07,0.00,19.27,22.78,25.90,14.44,43.28,1047.81,2043.54,2705.99,2601.03,2935.04,599.97,622.08,57.75,0000 0000 0000 0000 000000
2017-12-11 02:21:57,-0.00,2.08,0.00,19.25,22.76,25.93,14.54,43.30,1047.84,2043.58,2705.73,2601.00,2934.99,599.72,621.93,57.80,0000 0000 0000 0000 000000
2017-12-11 02:26:59,0.05,2.08,0.00,19.24,22.74,25.93,14.58,43.33,1047.86,2043.84,2705.12,2600.99,2934.97,600.07,622.33,57.85,0000 0000 0000 0000 000000
2017-12-11 02:32:00,0.02,2.08,0.00,19.22,22.72,25.86,14.46,43.27,1047.87,2043.90,2704.99,2600.84,2934.42,600.00,622.20,57.90,0000 0000 0000 0000 000000
2017-12-11 02:37:01,0.04,2.08,0.00,19.20,22.71,25.85,14.50,43.28,1047.82,2043.97,2704.64,2600.17,2934.03,600.21,622.49,57.95,0000 0000 0000 0000 000000
2017-12-11 02:42:03,0.01,2.08,0.00,19.18,22.69,25.83,14.50,43.21,1047.83,2043.97,2704.05,2600.02,2934.00,599.90,622.27,58.00,0000 0000 0000 0000 000000
2017-12-11 02:47:04,0.00,2.08,0.00,19.17,22.67,25.80,14.39,43.32,1047.86,2043.98,2704.00,2600.00,2933.98,599.79,622.13,58.05,0000 0000 0000 0000 000000
2017-12-11 02:52:06,0.00,2.08,0.00,19.14,22.65,25.81,14.43,43.19,1047.83,2043.98,2703.99,2600.00,2933.93,599.91,622.30,58.10,0000 0000 0000 0000 000000
2017-12-11 02:57:07,0.00,2.08,0.00,19.13,22.63,25.80,14.48,43.20,1047.78,2043.99,2703.93,2600.00,2933.74,600.16,622.56,58.15,0000 0000 0000 0000 000000
2017-12-11 03:02:08,0.02,2.08,0.00,19.12,22.62,25.75,14.44,43.40,1047.79,2043.99,2703.50,2599.98,2933.37,599.66,622.20,58.20,0000 0000 0000 0000 000000
2017-12-11 03:07:09,0.01,2.08,0.00,19.10,22.59,25.78,14.48,43.35,1047.71,2043.99,2703.07,2599.96,2933.11,599.71,622.23,58.25,0000 0000 0000 0000 000000
2017-12-11 03:12:11,0.00,2.08,0.00,19.08,22.58,25.75,14.42,43.16,1047.56,2043.99,2703.00,2599.91,2933.02,599.68,622.05,58.30,0000 0000 0000 0000 000000
2017-12-11 03:17:12,0.00,2.08,0.00,19.05,22.55,25.69,14.47,43.27,1047.60,2044.01,2703.00,2599.81,2933.01,599.75,622.31,58.35,0000 0000 0000 0000 000000
2017-12-11 03:22:13,0.00,2.09,0.00,19.03,22.53,25.70,14.48,43.20,1047.70,2044.02,2702.98,2599.61,2933.00,600.31,622.97,58.40,0000 0000 0000 0000 000000
2017-12-11 03:27:15,0.01,2.09,0.00,19.01,22.51,25.67,14.41,43.13,1047.66,2044.08,2702.95,2599.50,2933.00,599.59,622.19,58.45,0000 0000 0000 0000 000000
2017-12-11 03:32:16,0.05,2.09,0.00,18.99,22.49,25.67,14.50,43.08,1047.71,2044.32,2702.58,2599.28,2933.00,600.29,623.06,58.51,0000 0000 0000 0000 000000
2017-12-11 03:37:17,0.04,2.09,0.00,18.98,22.47,25.64,14.53,43.21,1047.65,2044.65,2702.07,2599.05,2932.98,600.24,623.05,58.56,0000 0000 0000 0000 000000
2017-12-11 03:42:18,0.02,2.09,0.00,18.97,22.45,25.64,14.51,43.15,1047.66,2044.86,2702.01,2599.03,2932.96,599.89,622.55,58.61,0000 0000 0000 0000 000000
2017-12-11 03:47:20,0.01,2.09,0.00,18.94,22.43,25.65,14.46,43.13,1047.69,2044.94,2702.00,2599.01,2932.82,599.91,622.73,58.66,0000 0000 0000 0000 000000
2017-12-11 03:52:21,0.00,2.09,0.00,18.93,22.41,25.62,14.57,43.10,1047.59,2044.97,2701.98,2599.00,2932.55,600.30,623.00,58.71,0000 0000 0000 0000 000000
2017-12-11 03:57:22,0.00,2.09,0.00,18.90,22.39,25.61,14.40,43.21,1047.66,2044.99,2701.96,2599.00,2932.38,599.86,622.65,58.76,0000 0000 0000 0000 000000
2017-12-11 04:02:23,0.02,2.09,0.00,18.87,22.36,25.56,14.44,43.23,1047.59,2044.99,2701.42,2599.00,2932.09,599.71,622.56,58.81,0000 0000 0000 0000 000000
2017-12-11 04:07:25,0.00,2.09,0.00,18.86,22.34,25.53,14.48,43.27,1047.65,2044.99,2701.05,2599.00,2932.01,599.89,622.81,58.86,0000 0000 0000 0000 000000
2017-12-11 04:12:26,0.00,2.09,0.00,18.83,22.32,25.50,14.51,43.18,1047.54,2044.99,2701.00,2598.97,2932.00,599.96,622.97,58.91,0000 0000 0000 0000 000000
2017-12-11 04:17:28,0.00,2.09,0.00,18.82,22.29,25.52,14.49,43.24,1047.63,2045.00,2700.99,2598.94,2931.99,599.89,622.95,58.96,0000 0000 0000 0000 000000
2017-12-11 04:22:29,0.03,2.10,0.00,18.79,22.28,25.47,14.45,43.23,1047.69,2045.02,2700.71,2598.47,2931.96,599.73,622.77,59.01,0000 0000 0000 0000 000000
2017-12-11 04:27:30,0.03,2.10,0.00,18.77,22.25,25.48,14.59,43.09,1047.59,2045.03,2700.08,2598.10,2931.56,600.38,623.50,59.06,0000 0000 0000 0000 000000
2017-12-11 04:32:32,0.01,2.10,0.00,18.73,22.23,25.48,14.48,43.17,1047.54,2045.10,2700.00,2598.03,2931.13,600.03,623.30,59.11,0000 0000 0000 0000 000000
2017-12-11 04:37:33,0.02,2.10,0.00,18.72,22.21,25.43,14.48,43.21,1047.66,2045.22,2699.98,2598.00,2931.01,599.88,623.29,59.16,0000 0000 0000 0000 000000
2017-12-11 04:42:34,0.03,2.10,0.00,18.69,22.19,25.43,14.59,43.17,1047.50,2045.44,2699.48,2597.99,2930.99,600.08,623.28,59.21,0000 0000 0000 0000 000000
2017-12-11 04:47:36,0.04,2.10,0.00,18.67,22.16,25.41,14.52,43.23,1047.47,2045.60,2699.02,2597.88,2930.87,599.95,623.06,59.26,0000 0000 0000 0000 000000
2017-12-11 04:52:37,0.04,2.10,0.00,18.65,22.14,25.40,14.54,43.18,1047.51,2045.66,2698.96,2597.20,2930.13,600.02,623.33,59.31,0000 0000 0000 0000 000000
2017-12-11 04:57:39,0.04,2.11,0.00,18.64,22.12,25.35,14.54,43.16,1047.49,2045.91,2698.35,2597.03,2930.00,599.97,623.17,59.36,0000 0000 0000 0000 000000
2017-12-11 05:02:40,0.00,2.11,0.00,18.61,22.10,25.32,14.51,43.11,1047.42,2045.98,2698.05,2597.00,2930.00,600.07,623.41,59.42,0000 0000 0000 0000 000000
2017-12-11 05:07:41,0.00,2.11,0.00,18.59,22.08,25.34,14.54,43.20,1047.40,2045.99,2698.00,2597.00,2929.98,599.97,623.19,59.47,0000 0000 0000 0000 000000
2017-12-11 05:12:43,0.01,2.11,0.00,18.58,22.05,25.28,14.57,43.11,1047.40,2045.99,2697.78,2596.94,2929.49,599.83,623.19,59.52,0000 0000 0000 0000 000000
2017-12-11 05:17:44,0.03,2.11,0.00,18.55,22.03,25.27,14.55,43.12,1047.39,2045.99,2697.07,2596.56,2929.04,600.19,623.64,59.57,0000 0000 0000 0000 000000
2017-12-11 05:22:45,0.01,2.11,0.00,18.53,22.01,25.26,14.54,43.11,1047.41,2045.99,2697.00,2596.09,2929.00,600.19,623.69,59.62,0000 0000 0000 0000 000000
2017-12-11 05:27:47,0.01,2.11,0.00,18.50,21.99,25.23,14.55,43.21,1047.40,2046.00,2696.74,2596.00,2928.97,600.12,623.54,59.67,0000 0000 0000 0000 000000
2017-12-11 05:32:48,0.02,2.11,0.00,18.48,21.97,25.22,14.48,43.10,1047.39,2046.03,2696.08,2595.99,2928.68,599.71,623.30,59.72,0000 0000 0000 0000 000000
2017-12-11 05:37:49,0.02,2.11,0.00,18.47,21.94,25.17,14.50,43.12,1047.39,2046.08,2695.99,2595.81,2928.05,599.81,623.43,59.77,0000 0000 0000 0000 000000
2017-12-11 05:42:50,0.05,2.12,0.00,18.44,21.92,25.20,14.48,43.18,1047.38,2046.22,2695.36,2595.11,2928.00,599.89,623.47,59.82,0000 0000 0000 0000 000000
2017-12-11 05:47:52,0.03,2.12,0.00,18.43,21.90,25.17,14.59,43.09,1047.39,2046.39,2695.01,2595.00,2927.35,600.12,623.76,59.87,0000 0000 0000 0000 000000
2017-12-11 05:52:53,0.06,2.12,0.00,18.40,21.88,25.11,14.51,43.20,1047.40,2046.40,2694.30,2594.43,2926.93,599.72,623.53,59.92,0000 0000 0000 0000 000000
2017-12-11 05:57:55,0.08,2.13,0.00,18.39,21.86,25.14,14.60,43.23,1047.38,2046.73,2693.18,2593.96,2926.11,600.61,624.36,59.97,0000 0000 0000 0000 000000
2017-12-11 06:02:56,0.04,0.28,0.00,18.35,21.87,25.08,12.95,41.74,1047.38,2047.89,3423.84,3065.00,3503.14,534.54,554.17,0.00,0000 0000 0000 0000 000000
2017-12-11 06:07:57,0.04,0.00,0.00,18.34,21.83,25.02,14.63,47.64,1047.38,2048.09,3531.23,3135.30,3589.54,599.94,623.93,0.05,0000 0000 0000 0000 000000
2017-12-11 06:12:59,0.05,0.01,0.00,18.30,21.81,25.04,14.55,47.37,1047.39,2048.38,3529.01,3134.11,3588.06,599.87,623.73,0.10,0000 0000 0000 0000 000000
2017-12-11 06:18:00,0.06,0.01,0.00,18.29,21.79,25.01,14.63,47.20,1047.38,2048.62,3527.70,3133.36,3587.05,600.05,623.98,0.15,0000 0000 0000 0000 000000
2017-12-11 06:23:02,0.06,0.01,0.00,18.26,21.77,24.99,14.65,47.24,1047.38,2048.88,3526.49,3132.70,3586.12,600.00,624.01,0.20,0000 0000 0000 0000 000000
2017-12-11 06:28:03,0.06,0.02,0.00,18.24,21.75,24.96,14.54,47.06,1047.38,2048.92,3525.20,3131.90,3585.12,600.04,624.19,0.25,0000 0000 0000 0000 000000
2017-12-11 06:33:04,0.06,0.02,0.00,18.22,21.73,24.98,14.57,46.99,1047.38,2048.97,3523.87,3130.97,3583.98,599.97,624.11,0.30,0000 0000 0000 0000 000000
2017-12-11 06:38:06,0.11,0.02,0.00,18.21,21.71,24.98,14.61,47.02,1047.38,2048.97,3521.68,3129.54,3582.52,600.12,624.29,0.35,0000 0000 0000 0000 000000
2017-12-11 06:43:07,0.12,0.03,0.00,18.18,21.69,24.90,14.58,46.96,1047.38,2048.97,3518.67,3127.63,3580.39,599.82,624.04,0.40,0000 0000 0000 0000 000000
2017-12-11 06:48:09,0.09,0.04,0.00,18.17,21.67,24.88,14.57,46.88,1047.38,2048.99,3516.22,3126.06,3578.69,600.12,624.34,0.45,0000 0000 0000 0000 000000
2017-12-11 06:53:10,0.08,0.04,0.00,18.15,21.65,24.88,14.60,46.87,1047.37,2048.99,3514.06,3124.77,3577.31,599.95,624.27,0.51,0000 0000 0000 0000 000000
2017-12-11 06:58:11,0.09,0.04,0.00,18.12,21.63,24.87,14.59,46.79,1047.38,2048.99,3512.00,3123.54,3575.76,599.95,624.24,0.56,0000 0000 0000 0000 000000
2017-12-11 07:03:12,0.09,0.05,0.00,18.10,21.62,24.85,14.58,46.83,1047.38,2048.99,3509.81,3122.08,3573.91,599.94,624.45,0.61,0000 0000 0000 0000 000000
2017-12-11 07:08:13,0.09,0.05,0.00,18.09,21.59,24.82,14.56,46.91,1047.38,2048.99,3507.54,3120.66,3572.31,599.72,624.17,0.66,0000 0000 0000 0000 000000
2017-12-11 07:13:15,0.09,0.06,0.00,18.07,21.58,24.81,14.50,46.89,1047.38,2049.01,3505.36,3119.35,3570.72,599.56,624.09,0.71,0000 0000 0000 0000 000000
2017-12-11 07:18:16,0.10,0.06,0.00,18.06,21.56,24.77,14.59,46.95,1047.39,2049.02,3503.27,3117.80,3568.86,599.70,624.23,0.76,0000 0000 0000 0000 000000
2017-12-11 07:23:17,0.10,0.07,0.00,18.04,21.54,24.78,14.60,46.95,1047.39,2049.06,3500.86,3116.35,3567.14,599.99,624.63,0.81,0000 0000 0000 0000 000000
2017-12-11 07:28:19,0.12,0.07,0.00,18.01,21.52,24.74,14.54,46.92,1047.40,2049.16,3498.24,3114.65,3565.26,599.84,624.44,0.86,0000 0000 0000 0000 000000
2017-12-11 07:33:20,0.17,0.08,0.00,17.99,21.50,24.71,14.54,46.83,1047.39,2049.44,3494.97,3112.47,3562.81,599.85,624.49,0.91,0000 0000 0000 0000 000000
2017-12-11 07:38:21,0.20,0.09,0.00,17.96,21.48,24.70,14.65,46.83,1047.38,2049.70,3491.11,3109.86,3559.82,600.23,625.01,0.96,0000 0000 0000 0000 000000
2017-12-11 07:43:22,0.18,0.10,0.00,17.98,21.46,24.68,14.62,46.88,1047.38,2049.86,3486.99,3107.08,3556.79,600.06,624.82,1.01,0000 0000 0000 0000 000000
2017-12-11 07:48:24,0.18,0.11,0.00,17.94,21.43,24.64,14.63,46.80,1047.38,2049.93,3482.90,3104.41,3553.80,599.96,624.81,1.06,0000 0000 0000 0000 000000
2017-12-11 07:53:25,0.18,0.12,0.00,17.92,21.41,24.67,14.63,46.84,1047.38,2049.96,3478.69,3101.58,3550.69,600.28,625.08,1.11,0000 0000 0000 0000 000000
2017-12-11 07:58:26,0.20,0.13,0.00,17.91,21.39,24.62,14.63,46.85,1047.38,2049.97,3474.06,3098.56,3547.28,599.92,624.70,1.16,0000 0000 0000 0000 000000
2017-12-11 08:03:27,0.19,0.14,0.00,17.89,21.37,24.64,14.62,46.85,1047.38,2049.98,3469.37,3095.45,3543.91,600.17,625.03,1.21,0000 0000 0000 0000 000000
2017-12-11 08:08:28,0.17,0.15,0.00,17.88,21.34,24.57,14.65,46.85,1047.38,2049.99,3465.11,3092.72,3540.88,599.98,624.90,1.26,0000 0000 0000 0000 000000
2017-12-11 08:13:30,0.16,0.16,0.00,17.84,21.32,24.54,14.63,46.83,1047.38,2049.99,3461.22,3090.19,3538.09,599.97,624.91,1.31,0000 0000 0000 0000 000000
2017-12-11 08:18:31,0.19,0.17,0.00,17.84,21.30,24.54,14.62,46.87,1047.38,2050.00,3457.38,3087.53,3534.89,600.01,624.97,1.36,0000 0000 0000 0000 000000
2017-12-11 08:23:32,0.22,0.18,0.00,17.81,21.28,24.52,14.63,46.92,1047.36,2050.01,3452.27,3084.11,3531.15,600.24,625.31,1.41,0000 0000 0000 0000 000000
2017-12-11 08:28:34,0.26,0.19,0.00,17.80,21.26,24.49,14.59,46.93,1047.37,2050.01,3446.21,3080.28,3526.95,599.63,624.65,1.46,0000 0000 0000 0000 000000
2017-12-11 08:33:35,0.36,0.21,0.00,17.79,21.24,24.51,14.63,46.90,1047.37,2050.03,3437.78,3075.32,3521.44,600.56,625.66,1.51,0000 0000 0000 0000 000000
2017-12-11 08:38:36,0.28,0.22,0.00,17.78,21.22,24.49,14.64,46.85,1047.38,2050.06,3430.96,3070.85,3516.17,600.07,625.15,1.56,0000 0000 0000 0000 000000
2017-12-11 08:43:37,0.43,0.24,0.00,17.75,21.19,24.40,14.58,46.82,1047.38,2050.14,3422.38,3066.14,3510.76,600.04,625.27,1.61,0000 0000 0000 0000 000000
2017-12-11 08:48:38,0.40,0.26,0.00,17.70,21.17,24.36,14.60,46.85,1047.37,2050.35,3410.02,3060.00,3504.12,599.93,625.22,1.66,0000 0000 0000 0000 000000
2017-12-11 08:53:39,0.30,0.28,0.00,17.62,21.15,24.33,14.67,46.85,1047.37,2050.84,3402.83,3056.22,3499.87,600.38,625.82,1.71,0000 0000 0000 0000 000000
2017-12-11 08:58:40,0.15,0.29,0.00,17.54,21.13,24.25,14.63,46.83,1047.38,2050.97,3398.94,3053.83,3497.25,600.13,625.73,1.76,0000 0000 0000 0000 000000
2017-12-11 09:03:42,0.13,0.30,0.00,17.46,21.09,24.24,14.60,46.87,1047.34,2050.97,3395.78,3051.80,3495.03,599.76,625.55,1.81,0000 0000 0000 0000 000000
2017-12-11 09:08:43,0.14,0.30,0.00,17.39,21.07,24.19,14.61,46.90,1047.34,2050.99,3392.72,3049.77,3492.64,600.18,625.92,1.86,0000 0000 0000 0000 000000
2017-12-11 09:13:44,0.11,0.31,0.00,17.33,21.03,24.17,14.63,46.87,1047.33,2050.99,3389.99,3047.94,3490.58,599.92,625.92,1.91,0000 0000 0000 0000 000000
2017-12-11 09:18:46,0.09,0.32,0.00,17.26,21.00,24.15,14.61,47.06,1047.31,2050.99,3387.73,3046.54,3489.07,599.75,625.92,1.96,0000 0000 0000 0000 000000
2017-12-11 09:23:47,0.11,0.32,0.00,17.20,20.96,24.11,14.65,47.00,1047.20,2051.03,3385.59,3045.11,3487.26,599.95,626.01,2.01,0000 0000 0000 0000 000000
2017-12-11 09:28:48,0.14,0.33,0.00,17.14,20.93,24.12,14.63,46.99,1047.11,2051.04,3382.30,3043.13,3484.93,599.89,626.13,2.06,0000 0000 0000 0000 000000
2017-12-11 09:33:50,0.18,0.34,0.00,17.09,20.88,24.05,14.66,46.92,1047.24,2051.10,3378.07,3040.60,3482.14,599.93,626.32,2.11,0000 0000 0000 0000 000000
2017-12-11 09:38:51,0.21,0.35,0.00,17.04,20.85,23.97,14.68,47.00,1047.29,2051.50,3374.37,3038.32,3479.49,599.91,626.56,2.16,0000 0000 0000 0000 000000
2017-12-11 09:43:52,0.16,0.36,0.00,17.00,20.80,23.96,14.63,47.05,1047.36,2051.93,3370.96,3036.21,3477.14,599.81,626.61,2.21,0000 0000 0000 0000 000000
2017-12-11 09:48:53,0.15,0.36,0.00,16.95,20.76,23.90,14.65,46.98,1047.36,2051.99,3367.45,3034.05,3474.85,600.29,627.13,2.26,0000 0000 0000 0000 000000
2017-12-11 09:53:55,0.14,0.37,0.00,16.91,20.71,23.86,14.67,46.99,1047.30,2051.99,3364.00,3031.99,3472.61,599.83,626.84,2.31,0000 0000 0000 0000 000000
2017-12-11 09:58:56,0.14,0.38,0.00,16.88,20.67,23.79,14.61,46.83,1047.14,2052.01,3360.68,3029.90,3470.21,599.77,626.64,2.36,0000 0000 0000 0000 000000
2017-12-11 10:03:57,0.13,0.39,0.00,16.85,20.62,23.73,14.69,46.77,1046.97,2052.08,3357.52,3027.94,3468.04,600.40,627.13,2.41,0000 0000 0000 0000 000000
2017-12-11 10:08:58,0.17,0.40,0.00,16.82,20.58,23.73,14.68,46.92,1046.92,2052.46,3354.49,3026.10,3465.98,600.02,626.87,2.46,0000 0000 0000 0000 000000
2017-12-11 10:14:00,0.15,0.40,0.00,16.79,20.53,23.68,14.72,46.94,1046.91,2052.91,3351.42,3024.27,3464.00,600.18,627.13,2.51,0000 0000 0000 0000 000000
2017-12-11 10:19:01,0.12,0.41,0.00,16.75,20.48,23.64,14.65,46.94,1046.90,2052.99,3348.49,3022.45,3462.06,599.76,626.70,2.56,0000 0000 0000 0000 000000
2017-12-11 10:24:03,0.12,0.42,0.00,16.72,20.44,23.61,14.76,46.98,1046.90,2052.99,3345.66,3020.70,3460.09,600.35,627.48,2.61,0000 0000 0000 0000 000000
2017-12-11 10:29:04,0.11,0.42,0.00,16.69,20.40,23.53,14.66,46.94,1046.90,2053.00,3343.04,3018.99,3458.09,600.04,627.19,2.66,0000 0000 0000 0000 000000
2017-12-11 10:34:05,0.12,0.43,0.00,16.68,20.35,23.51,14.71,46.95,1046.91,2053.05,3340.33,3017.30,3456.10,600.07,627.20,2.71,0000 0000 0000 0000 000000
2017-12-11 10:39:07,0.12,0.43,0.00,16.63,20.31,23.50,14.63,46.82,1046.91,2053.15,3337.76,3015.66,3454.30,599.82,627.23,2.76,0000 0000 0000 0000 000000
2017-12-11 10:44:08,0.15,0.44,0.00,16.62,20.27,23.44,14.69,46.79,1046.91,2053.65,3335.24,3014.11,3452.65,599.98,627.39,2.81,0000 0000 0000 0000 000000
2017-12-11 10:49:10,0.13,0.45,0.00,16.60,20.23,23.40,14.64,46.85,1046.91,2053.93,3332.50,3012.48,3450.90,600.01,627.36,2.87,0000 0000 0000 0000 000000
2017-12-11 10:54:11,0.12,0.46,0.00,16.57,20.20,23.40,14.62,46.91,1046.90,2053.98,3329.61,3010.67,3448.95,600.15,627.57,2.92,0000 0000 0000 0000 000000
2017-12-11 10:59:12,0.15,0.46,0.00,16.57,20.16,23.34,14.72,46.90,1046.89,2053.99,3326.28,3008.58,3446.62,600.44,627.75,2.97,0000 0000 0000 0000 000000
2017-12-11 11:04:13,0.19,0.47,0.00,16.55,20.13,23.31,14.66,46.88,1046.89,2054.00,3322.04,3006.04,3443.39,599.98,627.37,3.02,0000 0000 0000 0000 000000
2017-12-11 11:09:15,0.17,0.48,0.00,16.53,20.09,23.29,14.65,46.86,1046.89,2054.03,3317.90,3003.51,3440.54,599.94,627.42,3.07,0000 0000 0000 0000 000000
2017-12-11 11:14:16,0.14,0.49,0.00,16.49,20.06,23.26,14.69,46.96,1046.89,2054.11,3314.70,3001.49,3438.17,600.09,627.72,3.12,0000 0000 0000 0000 000000
2017-12-11 11:19:17,0.12,0.50,0.00,16.50,20.03,23.22,14.62,46.85,1046.89,2054.40,3312.32,3000.01,3436.53,599.84,627.55,3.17,0000 0000 0000 0000 000000
2017-12-11 11:24:18,0.11,0.50,0.00,16.45,20.00,23.18,14.72,46.98,1046.89,2054.82,3310.33,2998.89,3435.52,600.14,627.83,3.22,0000 0000 0000 0000 000000
2017-12-11 11:29:20,0.07,0.51,0.00,16.44,19.97,23.20,14.62,46.87,1046.89,2054.97,3308.69,2997.88,3434.45,599.66,627.33,3.27,0000 0000 0000 0000 000000
2017-12-11 11:34:21,0.06,0.51,0.00,16.43,19.94,23.15,14.63,46.81,1046.89,2054.99,3307.04,2996.91,3433.18,599.71,627.39,3.32,0000 0000 0000 0000 000000
2017-12-11 11:39:23,0.06,0.51,0.00,16.41,19.92,23.15,14.72,46.88,1046.89,2055.00,3305.80,2996.05,3432.41,599.73,627.45,3.37,0000 0000 0000 0000 000000
2017-12-11 11:44:24,0.06,0.52,0.00,16.40,19.89,23.14,14.67,46.91,1046.89,2055.00,3304.42,2995.15,3431.37,600.06,627.84,3.42,0000 0000 0000 0000 000000
2017-12-11 11:49:26,0.07,0.52,0.00,16.39,19.87,23.13,14.64,46.85,1046.89,2055.04,3302.96,2994.19,3430.26,599.87,627.64,3.47,0000 0000 0000 0000 000000
2017-12-11 11:54:26,0.06,0.52,0.00,16.35,19.84,23.07,14.73,46.88,1046.88,2055.07,3301.27,2993.11,3429.06,600.27,628.24,3.52,0000 0000 0000 0000 000000
2017-12-11 11:59:27,0.09,0.53,0.00,16.36,19.82,23.07,14.73,46.94,1046.77,2055.33,3299.97,2992.36,3428.19,600.20,628.00,3.57,0000 0000 0000 0000 000000
2017-12-11 12:04:29,0.09,0.53,0.00,16.34,19.79,23.03,14.70,46.73,1046.46,2055.77,3298.68,2991.67,3427.34,600.16,627.80,3.62,0000 0000 0000 0000 000000
2017-12-11 12:09:30,0.06,0.54,0.00,16.33,19.77,23.04,14.73,46.83,1046.41,2055.93,3297.32,2990.80,3426.38,600.17,627.86,3.67,0000 0000 0000 0000 000000
2017-12-11 12:14:31,0.05,0.54,0.00,16.32,19.74,23.00,14.76,46.81,1046.43,2055.97,3296.10,2990.01,3425.58,600.12,627.74,3.72,0000 0000 0000 0000 000000
2017-12-11 12:19:33,0.11,0.54,0.00,16.31,19.73,22.98,14.65,46.70,1046.42,2055.98,3294.28,2988.77,3424.02,599.85,627.51,3.77,0000 0000 0000 0000 000000
2017-12-11 12:24:34,0.13,0.55,0.00,16.29,19.70,23.00,14.65,46.81,1046.42,2055.99,3291.44,2986.92,3421.69,600.01,627.75,3.82,0000 0000 0000 0000 000000
2017-12-11 12:29:35,0.12,0.56,0.00,16.29,19.68,22.96,14.72,46.77,1046.42,2055.99,3288.45,2985.06,3419.62,600.06,627.79,3.87,0000 0000 0000 0000 000000
2017-12-11 12:34:36,0.12,0.56,0.00,16.28,19.66,22.96,14.68,46.77,1046.42,2055.99,3285.57,2983.34,3417.72,599.99,627.71,3.92,0000 0000 0000 0000 000000
2017-12-11 12:39:37,0.12,0.57,0.00,16.26,19.63,22.93,14.65,46.75,1046.41,2055.99,3282.74,2981.52,3415.66,599.97,627.80,3.97,0000 0000 0000 0000 000000
2017-12-11 12:44:38,0.13,0.58,0.00,16.25,19.61,22.92,14.66,46.73,1046.40,2055.99,3279.99,2979.70,3413.57,600.00,627.76,4.02,0000 0000 0000 0000 000000
2017-12-11 12:49:39,0.10,0.58,0.00,16.24,19.58,22.90,14.61,46.80,1046.40,2056.00,3277.35,2978.08,3411.77,599.66,627.47,4.07,0000 0000 0000 0000 000000
2017-12-11 12:54:40,0.09,0.59,0.00,16.24,19.56,22.88,14.64,46.88,1046.40,2056.06,3275.26,2976.80,3410.54,600.21,628.05,4.12,0000 0000 0000 0000 000000